Location: Casteau
(50.5142°N, 4.0161°E)
Time: 02:05:37
(UTC+00:00)

Transit 2A - Pass Details

Date: 30 July 2021
Orbit: 594 x 964 km, 66.7° (Epoch: 21 September)

Event Time Altitude Azimuth Distance (km) Brightness Sun altitude
Rises 13:18:52 0° 324° (NW) 3,131 9.1 53.3°
Reaches altitude 10° 13:21:21 10° 334° (NNW) 2,267 8.4 53.1°
Maximum altitude 13:26:04 33° 39° (NE) 1,317 7.2 52.6°
Drops below altitude 10° 13:31:13 10° 102° (ESE) 2,486 8.6 52.1°
Sets 13:34:03 0° 112° (ESE) 3,479 9.3 51.8°
